Total_Precipitation_Accumulation
0.00 0.00 0.00 0.00 0.00 0.00 0.00 0.00 0.00 0.00 0.00 0.00 0.00 0.00 0.00 0.01 0.16 0.34 0.14 0.06 0.13 0.19 0.10 0.03 0.03 0.06 0.02 0.01 0.18 0.11 0.04 0.02 0.01 0.07 0.14 0.10 0.02 0.01 0.01 0.01 0.01 0.01 0.03
0.00 0.00 0.00 0.00 0.00 0.00 0.00 0.00 0.00 0.00 0.00 0.00 0.00 0.00 0.00 0.00 0.00 0.00 0.04 0.08 0.11 0.42 0.27 0.15 0.10 0.08 0.04 0.08 0.32 0.25 0.16 0.07 0.10 0.11 0.26 0.15 0.06 0.01 0.01 0.01 0.01 0.01 0.00
0.00 0.00 0.00 0.00 0.00 0.00 0.00 0.00 0.00 0.00 0.00 0.00 0.00 0.00 0.00 0.00 0.00 0.01 0.01 0.03 0.05 0.10 0.42 0.16 0.29 0.36 0.32 0.24 0.33 0.39 0.27 0.18 0.19 0.19 0.12 0.10 0.04 0.04 0.01 0.02 0.01 0.02 0.01
0.00 0.00 0.00 0.00 0.00 0.00 0.00 0.00 0.00 0.00 0.00 0.00 0.00 0.00 0.00 0.00 0.00 0.00 0.00 0.01 0.03 0.06 0.28 0.46 0.36 0.43 0.54 0.56 0.44 0.37 0.32 0.37 0.34 0.48 0.34 0.23 0.12 0.12 0.10 0.09 0.05 0.02 0.02
0.00 0.00 0.00 0.00 0.00 0.00 0.00 0.00 0.00 0.00 0.00 0.00 0.00 0.00 0.01 0.01 0.01 0.02 0.01 0.02 0.02 0.03 0.08 0.33 0.33 0.47 0.54 0.49 0.60 0.56 0.53 0.50 0.52 0.53 0.59 0.53 0.42 0.41 0.35 0.26 0.14 0.08 0.05
0.00 0.00 0.00 0.00 0.00 0.00 0.00 0.00 0.00 0.01 0.00 0.00 0.01 0.02 0.05 0.07 0.07 0.05 0.05 0.11 0.16 0.18 0.30 0.39 0.37 0.41 0.47 0.47 0.65 0.56 0.52 0.73 0.84 0.72 0.60 0.52 0.52 0.40 0.33 0.28 0.20 0.11 0.09
0.00 0.00 0.00 0.00 0.00 0.01 0.02 0.02 0.02 0.01 0.02 0.02 0.02 0.08 0.20 0.22 0.15 0.12 0.15 0.25 0.48 0.63 0.76 0.70 0.71 0.62 0.73 0.97 0.90 0.83 0.70 0.72 0.71 0.58 0.38 0.25 0.21 0.31 0.33 0.29 0.31 0.28 0.14
0.01 0.00 0.00 0.01 0.03 0.04 0.05 0.06 0.06 0.05 0.05 0.07 0.09 0.14 0.16 0.19 0.15 0.10 0.14 0.18 0.23 0.29 0.52 0.62 0.69 0.90 1.07 1.16 1.34 1.20 0.94 0.84 0.52 0.43 0.44 0.38 0.31 0.31 0.37 0.37 0.46 0.51 0.44
0.01 0.00 0.02 0.09 0.10 0.08 0.07 0.08 0.10 0.08 0.07 0.08 0.09 0.14 0.20 0.27 0.23 0.18 0.16 0.16 0.15 0.12 0.19 0.32 0.32 0.40 0.57 0.77 0.93 0.88 0.62 0.54 0.47 0.36 0.31 0.27 0.17 0.19 0.23 0.28 0.32 0.42 0.51
0.01 0.03 0.06 0.10 0.13 0.13 0.12 0.09 0.08 0.12 0.13 0.10 0.09 0.11 0.14 0.19 0.19 0.19 0.16 0.18 0.17 0.14 0.16 0.13 0.16 0.22 0.26 0.30 0.32 0.34 0.32 0.29 0.18 0.18 0.21 0.16 0.14 0.16 0.17 0.25 0.26 0.28 0.30
0.06 0.08 0.10 0.18 0.18 0.15 0.12 0.11 0.10 0.14 0.25 0.19 0.20 0.17 0.16 0.18 0.20 0.19 0.18 0.17 0.16 0.19 0.17 0.15 0.13 0.14 0.17 0.22 0.22 0.24 0.28 0.32 0.24 0.25 0.24 0.20 0.24 0.24 0.24 0.25 0.25 0.20 0.25
0.06 0.05 0.08 0.11 0.13 0.16 0.21 0.17 0.11 0.09 0.25 0.55 0.43 0.32 0.27 0.27 0.25 0.26 0.26 0.23 0.21 0.21 0.19 0.18 0.17 0.21 0.21 0.20 0.21 0.18 0.18 0.19 0.17 0.19 0.25 0.21 0.29 0.28 0.29 0.38 0.33 0.28 0.22
0.02 0.04 0.04 0.06 0.09 0.15 0.23 0.30 0.27 0.17 0.10 0.15 0.49 0.56 0.54 0.38 0.35 0.36 0.31 0.34 0.29 0.24 0.27 0.26 0.22 0.19 0.20 0.09 0.15 0.13 0.08 0.10 0.12 0.14 0.17 0.13 0.26 0.29 0.28 0.33 0.29 0.31 0.26
0.00 0.01 0.02 0.03 0.05 0.15 0.22 0.24 0.30 0.32 0.20 0.14 0.15 0.22 0.34 0.50 0.57 0.48 0.40 0.31 0.31 0.33 0.27 0.31 0.34 0.22 0.15 0.07 0.05 0.08 0.05 0.04 0.07 0.10 0.11 0.12 0.18 0.18 0.20 0.24 0.27 0.31 0.41
0.00 0.00 0.00 0.00 0.00 0.04 0.12 0.13 0.12 0.16 0.17 0.11 0.10 0.09 0.09 0.12 0.21 0.45 0.59 0.48 0.30 0.21 0.24 0.22 0.22 0.19 0.17 0.07 0.03 0.01 0.02 0.02 0.06 0.08 0.08 0.09 0.18 0.22 0.25 0.23 0.19 0.22 0.30
0.00 0.00 0.00 0.00 0.00 0.00 0.01 0.04 0.05 0.04 0.03 0.04 0.04 0.03 0.03 0.03 0.03 0.04 0.10 0.28 0.40 0.34 0.15 0.10 0.09 0.07 0.07 0.04 0.02 0.01 0.00 0.00 0.01 0.04 0.11 0.12 0.15 0.14 0.20 0.27 0.30 0.30 0.28
0.00 0.00 0.00 0.00 0.00 0.00 0.00 0.00 0.02 0.01 0.00 0.00 0.01 0.01 0.01 0.03 0.02 0.03 0.02 0.01 0.02 0.10 0.18 0.16 0.09 0.01 0.02 0.02 0.01 0.01 0.00 0.00 0.00 0.01 0.04 0.18 0.25 0.18 0.10 0.18 0.32 0.49 0.52
0.00 0.00 0.00 0.00 0.00 0.00 0.00 0.00 0.00 0.01 0.01 0.01 0.00 0.00 0.00 0.00 0.00 0.00 0.00 0.00 0.00 0.00 0.00 0.02 0.07 0.06 0.03 0.01 0.00 0.00 0.00 0.00 0.00 0.00 0.02 0.05 0.14 0.27 0.17 0.10 0.12 0.14 0.22
0.00 0.00 0.00 0.00 0.00 0.00 0.00 0.00 0.00 0.00 0.00 0.00 0.00 0.00 0.00 0.00 0.00 0.00 0.00 0.00 0.00 0.00 0.00 0.00 0.00 0.01 0.02 0.02 0.00 0.00 0.00 0.00 0.00 0.00 0.01 0.02 0.07 0.30 0.42 0.31 0.27 0.31 0.27
0.00 0.00 0.00 0.00 0.00 0.00 0.00 0.00 0.00 0.00 0.00 0.00 0.00 0.00 0.00 0.00 0.00 0.00 0.00 0.00 0.00 0.00 0.00 0.00 0.00 0.00 0.00 0.01 0.01 0.00 0.00 0.00 0.00 0.00 0.01 0.05 0.05 0.09 0.15 0.14 0.10 0.12 0.18
0.00 0.00 0.00 0.00 0.00 0.00 0.00 0.00 0.00 0.00 0.00 0.00 0.00 0.00 0.00 0.00 0.00 0.00 0.00 0.00 0.00 0.00 0.00 0.00 0.00 0.00 0.00 0.00 0.00 0.00 0.00 0.00 0.00 0.00 0.00 0.01 0.06 0.05 0.13 0.16 0.08 0.05 0.04
0.00 0.00 0.00 0.00 0.00 0.00 0.00 0.00 0.00 0.00 0.00 0.00 0.00 0.00 0.00 0.00 0.00 0.00 0.00 0.00 0.00 0.00 0.00 0.00 0.00 0.00 0.00 0.00 0.00 0.00 0.00 0.00 0.00 0.00 0.00 0.01 0.04 0.03 0.07 0.11 0.15 0.14 0.09
0.00 0.00 0.00 0.00 0.00 0.00 0.00 0.00 0.00 0.00 0.00 0.00 0.00 0.00 0.00 0.00 0.00 0.00 0.01 0.01 0.01 0.00 0.00 0.00 0.01 0.00 0.00 0.01 0.00 0.00 0.01 0.00 0.00 0.00 0.00 0.01 0.02 0.02 0.02 0.09 0.16 0.20 0.15
0.00 0.00 0.00 0.00 0.00 0.00 0.00 0.00 0.00 0.00 0.00 0.00 0.01 0.01 0.01 0.01 0.01 0.01 0.01 0.01 0.02 0.02 0.01 0.02 0.02 0.02 0.01 0.01 0.01 0.01 0.01 0.01 0.00 0.00 0.00 0.00 0.01 0.02 0.05 0.17 0.21 0.15 0.15
0.00 0.00 0.00 0.00 0.00 0.00 0.00 0.00 0.00 0.00 0.00 0.01 0.01 0.01 0.01 0.01 0.01 0.01 0.01 0.02 0.02 0.02 0.04 0.05 0.04 0.05 0.04 0.02 0.01 0.01 0.01 0.01 0.00 0.00 0.00 0.01 0.00 0.02 0.08 0.12 0.12 0.11 0.13
0.00 0.00 0.00 0.00 0.00 0.00 0.00 0.00 0.00 0.01 0.02 0.01 0.01 0.02 0.02 0.01 0.02 0.01 0.01 0.01 0.01 0.01 0.01 0.02 0.02 0.02 0.02 0.01 0.02 0.01 0.01 0.00 0.00 0.01 0.01 0.01 0.02 0.03 0.05 0.09 0.16 0.14 0.11